Home   Weather   Melhus   Past weeks

Flag for Norway Past Weather in Melhus, Norway — Yesterday and Last 2 Weeks

46 °F


Feels Like: 46 °F
Forecast: 30 / 41 °F
Wind: 2 mph from North

Location: Trondheim / Vaernes

Current Time: Oct 25, 2016 at 5:46:25 PM

Latest Report: Oct 25, 2016 at 4:50 PM

Visibility: 10 mi

Pressure: 30.21 "Hg

Humidity: 57%

Dew Point: 32 °F

Location of MelhusLocation

Past Weather in Melhus — Graph


Melhus Temperature Yesterday

Maximum temperature yesterday: 48 °F (at 1:50 PM)
Minimum temperature yesterday: 34 °F (at 4:20 AM)
Average temperature yesterday: 42 °F

High & Low Weather Summary for the Past Weeks

High55 °F (Oct 18, 3:20 PM)100% (Oct 12, 8:50 PM)30.63 "Hg (Oct 12, 8:50 PM)
Low23 °F (Oct 13, 5:20 AM)34% (Oct 15, 1:50 PM)30.04 "Hg (Oct 18, 5:50 AM)
Average40 °F69%30.37 "Hg
* Reported Oct 10 4:20 PM — Oct 25 4:20 PM, Melhus, Weather by CustomWeather, © 2016

Note: Actual official high and low records may vary slightly from our data, if they occured in-between our weather recording intervals... More about our weather records


Melhus Weather History for the Previous 24 Hours

Scroll right to see more
Time TempWeatherWind HumidityBarometerVisibility
4:20 PM
Tue, Oct 25
48 °FSunny.3 mph54%30.21 "Hg10 mi
3:50 PM48 °FSunny.6 mph54%30.21 "Hg10 mi
3:20 PM48 °FPassing clouds.5 mph54%30.21 "HgN/A
2:50 PM48 °FSunny.5 mph54%30.21 "Hg10 mi
2:20 PM48 °FSunny.6 mph54%30.24 "Hg10 mi
1:50 PM48 °FPassing clouds.5 mph54%30.24 "HgN/A
1:20 PM46 °FSunny.6 mph57%30.24 "Hg10 mi
12:50 PM43 °FPassing clouds.5 mph66%30.24 "HgN/A
12:20 PM41 °FSunny.3 mph76%30.24 "Hg10 mi
11:50 AM41 °FSunny.3 mph70%30.27 "Hg10 mi
11:20 AM39 °FPassing clouds.5 mph75%30.27 "HgN/A
10:50 AM37 °FSunny.6 mph75%30.27 "Hg10 mi
10:20 AM36 °FSunny.8 mph81%30.27 "Hg10 mi
9:50 AM34 °FSunny.7 mph81%30.27 "Hg10 mi
9:20 AM34 °FSunny.8 mph81%30.27 "Hg10 mi
8:50 AM34 °FSunny.6 mph81%30.27 "Hg10 mi
8:20 AM34 °FClear.7 mph81%30.27 "Hg10 mi
7:50 AM32 °FClear.7 mph87%30.30 "Hg10 mi
7:20 AM34 °FPassing clouds.5 mph81%30.30 "HgN/A
6:50 AM34 °FClear.10 mph81%30.30 "Hg10 mi
6:20 AM34 °FClear.10 mph81%30.30 "Hg10 mi
5:50 AM34 °FClear.7 mph81%30.30 "Hg10 mi
5:20 AM36 °FClear.8 mph75%30.30 "Hg10 mi
4:50 AM37 °FClear.9 mph70%30.30 "Hg10 mi
4:20 AM41 °FClear.10 mph66%30.33 "Hg10 mi
3:50 AM43 °FClear.9 mph61%30.33 "Hg10 mi
3:20 AM41 °FClear.12 mph66%30.33 "Hg10 mi
2:50 AM41 °FClear.8 mph66%30.33 "Hg10 mi
2:20 AM43 °FClear.10 mph66%30.33 "Hg10 mi
1:50 AM43 °FPassing clouds.10 mph66%30.33 "HgN/A
1:20 AM45 °FClear.13 mph61%30.33 "Hg10 mi
12:50 AM45 °FPassing clouds.10 mph61%30.33 "HgN/A
12:20 AM45 °FClear.9 mph61%30.36 "Hg10 mi
11:50 PM
Mon, Oct 24
45 °FPassing clouds.10 mph61%30.36 "HgN/A
11:20 PM45 °FClear.10 mph61%30.36 "Hg10 mi
10:50 PM45 °FClear.10 mph61%30.36 "Hg10 mi
10:20 PM45 °FClear.10 mph61%30.36 "Hg10 mi
9:50 PM46 °FClear.8 mph57%30.36 "Hg10 mi
9:20 PM46 °FPassing clouds.8 mph57%30.36 "HgN/A
8:50 PM46 °FClear.13 mph57%30.36 "Hg10 mi
8:20 PM46 °FClear.15 mph57%30.36 "Hg10 mi
7:50 PM45 °FClear.12 mph61%30.36 "Hg10 mi
7:20 PM45 °FClear.12 mph61%30.36 "Hg10 mi
6:50 PM45 °FClear.10 mph61%30.36 "Hg10 mi
6:20 PM45 °FClear.8 mph61%30.36 "Hg10 mi
5:50 PM46 °FClear.8 mph57%30.36 "Hg10 mi
5:20 PM46 °FSunny.12 mph57%30.36 "Hg10 mi
Weather by CustomWeather, © 2016

See weather overviewHow to use our weather pages